sat.trackr.live / text

‹ back to catalog

STARLINK-5627

NORAD 55364 · 2023-013AK

PAYLOAD ACTIVE UNKNOWN

§ Identity

Operator
Country
US
Launch date
2023-01-26
Launch site
AFETR
Launch vehicle
Mass (kg)
RCS (m²)

Purposes: comms

External: N2YO · Heavens-Above · Gunter

§ Orbital elements

Epoch: 2026-09-20T09:50:27.920832Z

Period
94.27 min
Inclination
43.0023°
Eccentricity
0.0001565
Mean motion
15.27572359 rev/d
Perigee alt
482.0 km
Apogee alt
484.1 km
Semi-major
6,861.2 km
B*
5.7721e-6
RAAN
287.1185°
Arg perigee
253.5713°
Mean anomaly
106.4967°
Rev number
20,141

§ Raw data

STARLINK-56271 55364U 23013AK  26263.41004538 -.00000103  00000+0  57721-5 0  99972 55364  43.0023 287.1185 0001565 253.5713 106.4967 15.27572359201419

JSON: /api/v1/satellites/55364 · /tle

For live sub-satellite position, see the globe view (requires WebGL).

§ Visibility from observer

Set your observer location to see the next 7 days of passes ≥ 10°. The values pass through the URL so the page stays shareable.

No JS? Fill the form by hand. The geolocation button needs JavaScript.